Temp
4 4 4 4 4 3 3 4 4 5 5 5 6 6 6 7 7 7 7 7 7 8 7 8 8 8 8 8 8 9 9 9 9 9 9 9 9 9 9 9 9 9 9 9 9
3 3 4 4 4 3 3 3 4 4 5 5 5 6 6 6 7 7 7 7 7 7 7 8 8 8 8 8 8 8 9 9 9 9 9 9 9 9 9 9 9 9 9 9 9
3 3 3 4 3 4 3 3 4 4 4 4 5 5 6 6 7 7 6 7 7 7 7 8 8 8 8 8 8 8 9 9 9 9 9 9 9 9 9 10 9 9 9 9 9
3 3 3 3 3 3 4 3 3 4 4 4 5 5 5 6 6 7 7 7 7 7 7 7 7 8 8 8 8 8 8 8 8 8 8 9 9 9 10 9 10 9 9 9 9
3 2 2 3 3 3 3 4 3 3 4 4 5 5 5 6 6 6 6 6 7 7 7 7 7 7 8 7 8 8 8 8 8 8 9 9 9 10 10 9 10 10 10 10 9
2 2 2 2 3 3 3 3 3 3 4 4 4 5 5 5 6 6 6 6 7 7 7 7 7 7 7 8 8 8 8 8 8 9 9 9 9 10 10 9 10 9 10 10 10
2 2 2 2 2 3 2 3 3 3 4 4 4 4 4 5 5 5 6 6 6 6 7 7 7 7 7 7 8 8 8 8 8 8 9 9 9 10 9 9 10 10 9 9 10
1 1 2 1 2 2 2 2 3 3 3 4 4 4 4 5 5 5 5 6 6 6 6 6 7 6 7 7 7 7 7 7 9 8 8 9 10 9 10 9 9 10 10 10 10
1 1 1 1 2 1 2 2 2 3 3 3 3 4 4 5 5 5 5 5 6 6 6 6 6 6 6 6 6 6 7 8 8 8 8 8 9 9 9 9 9 9 9 9 10
-0 0 1 1 1 1 1 1 1 2 2 3 3 3 4 5 5 5 5 5 5 5 5 6 6 6 6 6 6 7 7 7 7 7 7 7 9 8 8 9 9 9 9 9 10
-1 -0 -0 1 1 -0 1 1 1 1 2 3 3 3 3 4 4 4 4 5 5 5 5 5 6 6 6 7 7 7 6 6 6 7 6 7 8 8 8 8 9 9 9 9 10
-1 -1 -1 -1 -0 -1 1 1 1 2 2 2 2 3 3 4 4 4 4 4 5 5 5 5 5 6 6 6 6 6 6 6 6 6 6 6 7 8 8 8 9 10 10 10 10
-1 -2 -1 -1 -1 -0 0 1 1 0 1 1 2 2 3 3 4 4 4 4 4 5 5 5 5 6 6 6 5 5 5 6 6 6 6 6 7 8 8 9 9 9 10 10 9
-2 -2 -3 -2 -2 -0 0 0 -0 -0 -0 1 1 2 2 2 3 4 3 4 4 4 4 4 5 5 5 5 5 5 5 5 6 5 5 6 4 6 8 8 8 9 9 9 9
-2 -2 -2 -3 -1 -1 0 -1 -1 -1 -2 2 2 2 2 2 3 3 3 3 3 4 3 4 4 4 5 5 5 5 5 5 5 5 4 5 4 6 7 8 8 8 9 8 9
-2 -2 -3 -2 -2 -1 -1 -1 -3 -4 -4 1 2 1 2 2 2 3 3 3 2 3 3 3 4 4 4 4 4 4 4 4 4 4 2 5 5 5 7 7 7 7 8 8 8
-2 -2 -3 -3 -2 -2 -2 -3 -3 -3 -1 1 0 1 1 2 1 2 3 2 2 1 2 2 2 3 4 4 4 3 3 2 1 -1 -1 5 4 6 6 6 6 7 7 7 7
-3 -3 -3 -3 -3 -3 -3 -4 -3 -2 -1 -0 1 1 1 2 1 2 2 2 3 3 3 2 1 3 3 4 4 3 3 4 -1 -2 0 4 4 5 6 5 6 7 7 7 7
-4 -3 -2 -3 -2 -2 -3 -4 -2 -2 -1 -1 -0 -0 -1 0 1 1 2 3 3 3 3 2 2 3 3 3 4 2 2 3 3 2 1 3 4 5 4 5 5 6 6 6 5
-4 -4 -3 -3 -2 -2 -3 -3 -3 -2 -0 -1 1 0 1 1 0 1 1 2 3 3 3 3 2 3 3 2 3 3 4 2 2 -4 -3 1 3 5 5 4 5 5 4 5 5
-4 -5 -4 -3 -3 -3 -3 -3 -3 -2 -1 -2 -0 1 0 1 0 1 1 2 3 3 2 2 3 1 2 2 3 2 2 3 3 3 -2 -3 2 4 3 3 3 3 3 3 3
-5 -5 -5 -5 -4 -4 -3 -3 -3 -3 -2 -2 -1 -0 -0 0 -0 0 1 2 2 2 2 2 2 2 2 2 2 2 2 3 3 1 3 3 1 1 1 2 2 2 3 3 3
-6 -6 -6 -5 -5 -5 -4 -4 -4 -3 -3 -3 -2 -2 -1 -1 -1 -0 -0 -0 1 1 1 1 1 0 -0 -0 1 0 1 1 2 3 3 1 0 -0 0 1 1 2 2 1 2
-6 -6 -6 -6 -5 -4 -5 -4 -5 -5 -5 -4 -4 -4 -3 -2 -2 -2 -2 -1 -1 0 1 0 1 1 1 1 1 0 1 1 1 2 2 3 2 0 0 1 1 1 1 0 0
-6 -6 -6 -6 -6 -5 -5 -5 -5 -5 -5 -4 -5 -4 -4 -3 -3 -3 -2 -2 -2 -1 -1 -0 -0 0 1 1 1 1 2 2 1 1 1 2 2 2 2 1 0 0 -0 -0 -0
-7 -7 -6 -6 -6 -6 -6 -5 -5 -5 -5 -5 -5 -4 -4 -4 -3 -3 -3 -2 -2 -2 -2 -2 -1 -1 -1 -1 -1 -0 1 0 0 0 0 -0 1 1 -0 -1 -1 -1 -2 -1 -0
-8 -8 -7 -7 -6 -7 -6 -6 -5 -6 -5 -5 -5 -5 -5 -4 -4 -4 -3 -3 -3 -2 -2 -2 -2 -3 -3 -3 -3 -3 -1 -2 -2 -1 -0 -1 -0 -1 -1 -2 -1 -0 -0 -1 -1
Height
3083 3088 3092 3095 3100 3103 3109 3111 3116 3119 3123 3126 3129 3132 3135 3138 3141 3143 3145 3149 3150 3153 3155 3157 3158 3161 3163 3166 3170 3171 3175 3176 3177 3178 3179 3180 3181 3181 3182 3182 3183 3184 3185 3185 3185
3078 3083 3088 3093 3097 3102 3105 3110 3113 3116 3120 3124 3127 3131 3135 3135 3138 3141 3144 3146 3149 3152 3154 3156 3157 3159 3162 3164 3168 3169 3172 3173 3176 3177 3178 3180 3181 3181 3182 3182 3182 3183 3184 3184 3184
3074 3079 3084 3089 3095 3100 3103 3107 3111 3115 3118 3122 3125 3128 3131 3134 3136 3139 3141 3144 3147 3149 3152 3155 3157 3158 3161 3163 3165 3167 3171 3173 3174 3177 3177 3178 3179 3180 3180 3180 3181 3183 3183 3183 3183
3068 3074 3080 3085 3090 3096 3101 3104 3108 3112 3115 3119 3123 3125 3128 3131 3136 3135 3138 3142 3144 3147 3150 3153 3155 3157 3160 3162 3164 3166 3168 3171 3172 3175 3176 3177 3176 3177 3178 3179 3180 3180 3182 3182 3183
3065 3070 3075 3081 3086 3092 3097 3101 3105 3110 3112 3116 3119 3122 3125 3128 3132 3133 3136 3139 3142 3145 3147 3152 3154 3156 3157 3160 3163 3164 3166 3169 3170 3173 3173 3176 3174 3174 3176 3176 3177 3178 3179 3181 3182
3060 3066 3071 3076 3082 3087 3092 3098 3102 3107 3110 3113 3116 3119 3123 3127 3129 3131 3132 3136 3138 3142 3147 3148 3152 3155 3155 3158 3161 3162 3165 3167 3168 3169 3170 3172 3172 3172 3175 3173 3175 3176 3177 3178 3179
3055 3060 3067 3072 3078 3082 3088 3094 3099 3103 3107 3109 3112 3115 3119 3125 3125 3128 3130 3133 3136 3141 3144 3146 3149 3153 3154 3157 3159 3160 3162 3164 3165 3166 3166 3168 3169 3169 3170 3171 3172 3172 3174 3175 3176
3050 3055 3063 3068 3073 3078 3083 3089 3094 3098 3103 3105 3108 3111 3115 3119 3121 3125 3128 3131 3135 3138 3141 3144 3146 3150 3153 3154 3156 3157 3159 3161 3162 3163 3163 3165 3167 3166 3167 3168 3169 3169 3170 3172 3174
3046 3050 3057 3062 3068 3073 3079 3084 3089 3094 3098 3101 3105 3107 3111 3113 3117 3121 3125 3128 3132 3135 3138 3140 3143 3146 3150 3151 3154 3154 3155 3156 3158 3159 3159 3161 3162 3163 3164 3165 3166 3166 3167 3168 3170
3040 3045 3050 3057 3063 3069 3073 3079 3084 3089 3092 3097 3100 3106 3103 3108 3114 3117 3122 3124 3127 3132 3135 3137 3138 3141 3144 3147 3148 3150 3152 3153 3153 3156 3155 3156 3158 3159 3160 3161 3162 3162 3164 3166 3166
3035 3039 3045 3052 3058 3063 3069 3073 3080 3084 3084 3089 3093 3096 3099 3106 3110 3113 3118 3120 3124 3128 3129 3132 3133 3133 3140 3145 3149 3149 3149 3149 3151 3151 3152 3152 3153 3156 3157 3157 3158 3159 3160 3161 3162
3024 3032 3038 3045 3051 3057 3061 3066 3074 3079 3083 3085 3089 3092 3097 3102 3106 3109 3114 3116 3118 3122 3125 3129 3126 3136 3140 3142 3144 3145 3147 3148 3149 3149 3150 3148 3148 3150 3152 3152 3153 3154 3155 3156 3155
3017 3022 3032 3040 3045 3049 3057 3066 3070 3075 3079 3080 3084 3089 3094 3100 3102 3105 3109 3111 3115 3118 3119 3122 3128 3133 3133 3137 3138 3140 3142 3145 3147 3147 3146 3145 3142 3144 3146 3147 3148 3149 3149 3150 3149
3009 3015 3022 3033 3039 3045 3052 3060 3065 3072 3076 3075 3076 3081 3088 3093 3096 3100 3104 3109 3111 3113 3119 3122 3124 3127 3130 3133 3136 3136 3139 3142 3143 3144 3144 3143 3138 3138 3141 3141 3142 3144 3143 3144 3144
3004 3007 3015 3023 3032 3036 3052 3056 3063 3069 3072 3070 3070 3075 3080 3087 3089 3092 3097 3101 3104 3110 3115 3115 3118 3124 3125 3127 3132 3133 3136 3139 3140 3140 3140 3138 3141 3133 3135 3136 3136 3136 3137 3138 3138
2996 2999 3009 3017 3027 3039 3047 3053 3059 3065 3060 3057 3058 3061 3070 3076 3082 3087 3090 3095 3101 3107 3109 3113 3116 3120 3121 3125 3128 3131 3133 3136 3138 3138 3135 3131 3136 3130 3132 3132 3133 3133 3133 3134 3135
2990 2995 3003 3012 3020 3032 3041 3048 3051 3049 3048 3048 3048 3053 3062 3068 3075 3080 3082 3085 3090 3098 3102 3105 3109 3113 3116 3120 3124 3125 3130 3135 3138 3137 3129 3127 3129 3124 3128 3128 3129 3130 3131 3131 3131
2986 2993 2998 3005 3017 3026 3033 3037 3038 3031 3038 3040 3045 3052 3055 3062 3068 3071 3076 3080 3084 3089 3093 3097 3103 3103 3107 3112 3116 3121 3125 3126 3133 3132 3124 3125 3122 3119 3122 3123 3124 3124 3125 3126 3127
2986 2988 2992 2999 3007 3014 3020 3022 3020 3022 3034 3038 3041 3045 3050 3056 3059 3063 3067 3070 3076 3078 3088 3091 3095 3096 3102 3107 3113 3115 3117 3122 3123 3123 3123 3120 3119 3119 3118 3119 3120 3120 3121 3121 3120
2984 2986 2990 2991 3000 3002 3007 3009 3014 3020 3026 3031 3034 3038 3041 3047 3053 3057 3060 3060 3066 3073 3081 3085 3090 3090 3096 3101 3106 3105 3112 3117 3118 3123 3124 3113 3114 3113 3114 3113 3114 3115 3116 3116 3117
2980 2983 2985 2988 2990 2989 2995 3003 3007 3014 3020 3024 3029 3033 3037 3040 3045 3048 3049 3054 3059 3066 3074 3079 3082 3086 3089 3088 3092 3100 3102 3107 3110 3110 3108 3113 3107 3107 3107 3108 3109 3110 3111 3112 3112
2976 2978 2981 2985 2989 2986 2989 2999 3004 3009 3013 3017 3023 3027 3032 3035 3039 3042 3043 3047 3051 3056 3062 3070 3075 3078 3080 3083 3087 3089 3091 3094 3097 3100 3101 3102 3105 3103 3102 3104 3105 3106 3106 3107 3106
2971 2975 2977 2983 2985 2987 2990 2995 2999 3002 3007 3011 3016 3020 3024 3029 3034 3034 3038 3041 3044 3049 3053 3058 3065 3071 3076 3080 3077 3078 3084 3088 3093 3095 3092 3096 3099 3099 3099 3100 3100 3101 3100 3101 3101
2967 2970 2974 2977 2979 2984 2988 2991 2995 2999 3003 3006 3009 3013 3018 3022 3025 3026 3029 3033 3037 3043 3046 3052 3054 3056 3055 3059 3068 3072 3075 3080 3086 3087 3085 3085 3089 3091 3091 3093 3093 3093 3094 3096 3096
2959 2962 2965 2967 2972 2977 2982 2986 2991 2994 2999 3003 3005 3009 3014 3018 3018 3020 3022 3025 3030 3035 3040 3045 3047 3051 3051 3055 3061 3062 3066 3071 3073 3076 3078 3077 3082 3084 3085 3085 3086 3087 3088 3090 3091
2952 2956 2960 2962 2968 2975 2978 2981 2986 2990 2995 2998 3002 3006 3010 3014 3015 3016 3018 3019 3022 3028 3031 3035 3038 3044 3046 3050 3054 3056 3058 3062 3065 3067 3069 3070 3073 3079 3080 3079 3080 3082 3084 3085 3085
2946 2950 2955 2958 2964 2969 2970 2977 2980 2986 2991 2995 2999 3003 3006 3011 3013 3014 3016 3018 3019 3022 3024 3029 3032 3036 3040 3043 3047 3048 3043 3050 3054 3057 3061 3061 3065 3073 3074 3074 3076 3077 3077 3077 3076
Wind_Speed
29 27 25 26 28 30 30 31 29 28 26 23 21 19 18 18 16 15 14 14 14 15 15 17 19 20 20 19 18 19 17 12 7 7 7 4 2 5 6 5 4 3 2 2 1
29 29 28 27 28 30 30 30 30 27 26 24 23 22 20 17 16 15 15 15 16 15 15 16 17 18 19 20 20 19 17 15 8 8 6 7 6 7 9 7 7 5 4 4 3
30 30 29 30 29 30 30 29 28 27 25 23 21 21 19 18 17 17 17 17 16 16 16 16 16 17 17 18 20 21 19 15 11 9 8 7 8 10 9 8 8 8 8 6 6
30 30 29 30 31 31 32 29 28 27 25 24 23 22 20 20 14 17 18 19 18 17 17 17 16 16 16 16 17 18 20 20 16 11 11 11 11 12 10 9 9 11 9 7 6
28 30 30 30 31 32 32 31 29 27 26 25 23 23 22 22 18 16 20 20 19 18 17 18 17 16 17 17 17 16 17 17 16 15 14 14 13 13 9 10 11 12 11 9 8
28 28 29 30 32 31 31 31 30 29 27 27 25 24 23 22 23 13 20 21 19 19 20 19 19 18 18 16 17 15 15 16 14 15 13 13 13 13 8 9 11 12 12 11 10
31 29 28 30 32 32 31 30 30 29 28 27 26 25 24 22 22 21 16 21 21 21 20 20 17 18 18 16 15 13 13 14 13 13 14 12 15 11 13 15 12 14 13 12 11
30 34 37 32 32 32 31 30 30 29 29 28 27 25 26 25 24 23 20 18 22 21 20 18 19 19 17 16 14 16 14 13 14 14 13 12 13 9 10 12 12 15 16 14 11
30 31 34 30 33 32 31 30 29 30 29 28 27 27 27 29 27 24 25 23 16 21 21 20 20 21 20 18 17 15 9 13 12 11 13 13 12 9 11 15 15 15 15 15 13
32 31 34 30 33 31 32 30 29 30 29 29 28 26 28 32 28 27 21 23 23 18 23 24 25 25 24 24 20 15 18 14 11 11 12 14 14 13 12 15 15 16 16 16 16
37 35 35 38 35 31 33 33 32 33 35 36 26 34 12 23 28 28 27 22 25 26 23 26 28 33 26 22 18 15 13 12 6 12 13 16 19 18 17 18 19 19 19 20 20
36 44 37 33 34 34 35 36 34 32 32 31 31 26 29 17 23 31 29 29 27 28 27 26 31 24 19 20 21 20 17 13 11 11 15 18 23 22 20 21 20 20 19 19 21
26 48 39 35 34 37 34 34 32 29 22 31 32 30 25 26 24 25 32 31 30 28 30 31 18 22 22 24 24 23 22 19 17 15 19 23 32 29 24 18 15 12 12 11 13
30 50 48 38 39 36 40 34 29 28 16 25 37 35 31 30 26 29 27 31 31 30 27 25 26 20 27 25 24 23 20 17 17 16 13 16 10 22 22 14 8 9 9 13 15
26 45 50 44 41 41 33 33 28 22 4 16 30 36 36 34 31 31 31 30 33 29 30 25 25 24 28 30 24 21 18 17 18 19 20 22 11 6 9 22 11 11 15 15 18
38 50 49 51 43 39 31 29 26 16 9 16 26 36 38 41 38 32 33 30 29 26 29 32 23 25 30 21 23 24 18 13 12 11 9 20 16 5 2 2 8 6 6 10 12
34 43 50 50 47 39 36 34 23 19 16 20 28 36 40 43 42 36 37 40 34 27 30 29 28 24 21 27 25 25 19 3 3 3 5 8 12 18 8 9 13 12 12 16 18
33 35 50 49 46 44 40 43 16 21 25 12 30 30 40 43 42 43 40 37 39 37 28 27 17 35 31 28 32 26 25 13 7 4 4 12 8 6 21 16 18 20 21 21 28
9 35 48 51 41 49 44 45 32 25 41 17 26 34 38 41 32 43 46 48 44 44 33 28 25 18 34 31 28 30 34 27 8 3 1 6 6 15 15 18 16 21 24 24 16
12 12 25 45 40 51 51 39 39 27 28 34 26 30 34 39 36 32 43 47 48 46 41 26 15 26 32 29 31 33 30 19 18 3 3 5 8 14 20 25 24 23 19 20 22
15 16 15 19 43 38 47 31 37 34 22 36 38 32 26 37 38 38 31 39 40 48 44 38 31 14 28 38 41 36 29 22 18 21 6 2 6 14 22 22 20 20 17 17 15
22 22 20 15 15 18 28 22 28 37 37 37 36 39 30 29 32 40 41 36 33 34 50 48 26 23 30 33 39 40 40 42 24 10 21 13 3 19 25 25 20 15 14 12 10
28 26 24 22 19 19 20 18 17 23 22 27 28 33 36 31 27 35 43 40 32 30 41 52 32 18 12 27 36 40 38 35 38 26 28 15 13 26 23 20 15 15 12 11 13
30 27 28 29 28 26 25 24 21 19 18 18 17 15 17 20 25 26 36 37 39 33 37 37 39 43 33 27 35 40 43 44 40 33 27 35 21 35 29 24 20 17 16 18 18
33 27 28 27 35 33 28 22 27 26 23 18 15 17 18 20 21 13 32 35 33 32 34 36 38 39 38 31 27 37 46 45 49 49 35 39 31 37 39 26 22 25 28 31 28
35 31 32 34 25 31 31 31 29 25 26 27 24 13 18 17 17 16 15 32 35 36 35 44 28 40 38 35 25 33 37 44 48 50 46 28 31 34 31 30 30 32 30 29 31
33 36 31 32 32 29 39 34 31 24 23 22 20 21 24 20 22 17 15 16 19 33 34 33 26 25 19 24 20 23 43 42 44 45 47 44 43 26 26 25 27 32 32 33 30
Wind_Direction
205 208 209 205 202 196 194 190 192 189 191 190 193 199 195 194 195 195 195 193 190 196 195 190 188 187 187 189 190 189 190 180 169 185 176 165 223 247 231 218 224 243 220 264 278
203 205 205 208 205 203 199 199 195 196 196 196 196 195 201 196 197 195 191 193 195 194 193 197 192 188 191 191 194 194 190 182 183 200 204 240 245 245 233 233 241 240 249 252 263
205 205 207 205 208 208 207 208 206 202 202 206 206 202 201 199 197 196 192 194 195 193 196 197 198 194 191 193 195 202 198 185 181 181 208 229 259 268 251 246 250 252 245 247 259
204 205 209 211 207 211 213 214 214 211 208 208 211 208 204 202 200 202 194 196 194 194 195 196 197 200 194 196 196 199 202 209 196 206 220 242 258 269 256 246 240 244 244 239 247
209 207 206 213 212 211 215 217 220 217 213 214 214 213 208 205 198 196 198 198 196 195 195 199 200 199 200 202 200 204 201 211 213 223 232 243 253 252 261 250 243 249 252 254 249
203 210 210 210 214 213 213 217 219 222 215 215 213 215 216 212 202 199 197 198 197 199 200 200 200 203 209 208 210 212 214 224 223 231 242 246 249 250 252 247 247 253 260 266 269
207 209 215 214 213 213 213 215 215 218 219 215 217 216 218 213 212 201 193 198 199 201 204 202 203 210 213 213 216 214 213 222 226 235 245 253 251 251 234 241 243 249 248 251 266
204 206 217 212 213 212 212 213 215 215 217 216 217 219 221 215 215 210 196 192 202 201 205 205 206 213 217 214 218 220 228 236 236 240 242 244 253 244 232 246 239 238 253 255 250
209 203 209 212 212 211 211 211 212 213 216 216 217 220 222 218 214 212 211 207 201 205 206 205 210 212 214 211 213 213 215 225 235 235 232 234 246 247 234 248 248 247 243 253 259
212 208 204 219 213 210 210 210 209 212 210 216 217 217 224 220 215 212 210 209 208 205 207 207 209 212 216 213 211 215 222 227 235 242 237 246 243 250 248 247 252 252 257 262 265
220 211 204 210 212 207 211 208 206 208 209 213 214 219 222 219 214 212 209 207 206 209 210 210 213 215 218 226 232 234 210 207 206 234 239 247 256 254 252 259 265 267 266 267 274
228 203 202 205 207 204 212 211 212 216 214 213 218 218 218 211 215 214 210 209 209 211 211 217 223 223 222 223 223 220 217 219 230 234 252 258 263 264 269 277 272 269 272 273 266
219 199 197 202 203 204 213 214 210 212 216 218 217 222 215 215 215 216 212 212 214 214 215 221 231 218 215 215 212 219 228 232 242 254 264 275 276 278 281 285 282 273 266 267 261
221 212 188 200 204 200 210 206 205 208 213 224 216 219 213 209 212 213 209 216 214 217 219 229 225 221 214 215 213 220 227 232 243 259 265 268 287 282 291 292 289 290 249 251 245
217 206 193 201 204 206 195 201 198 191 205 226 219 218 214 211 220 207 207 210 217 213 208 212 216 211 215 220 216 227 231 238 249 258 266 262 268 277 294 305 270 249 221 231 258
208 206 198 198 206 205 198 196 193 176 235 209 205 206 208 212 216 210 205 207 213 215 224 224 223 214 223 214 218 231 233 230 230 239 262 251 242 265 250 223 182 182 197 232 253
190 201 199 200 202 198 195 188 178 200 211 210 198 199 204 208 210 213 210 205 199 198 214 219 219 222 222 220 220 220 207 151 256 217 230 197 214 235 173 178 191 217 245 277 274
198 191 205 206 202 193 193 193 201 215 190 199 198 198 201 208 210 211 217 214 215 214 212 207 208 218 222 218 213 204 206 196 198 200 236 203 233 223 213 224 231 242 260 264 279
198 200 196 207 209 201 188 187 205 207 200 191 183 189 199 206 211 208 212 219 222 216 209 210 218 217 224 224 216 209 214 224 232 223 286 214 205 168 187 210 226 234 254 269 256
234 217 195 196 200 210 197 199 207 208 200 203 193 196 201 205 209 210 214 225 224 222 219 219 213 219 216 216 218 220 222 202 212 134 239 233 214 214 222 233 236 236 219 234 241
227 237 214 179 187 198 199 204 201 204 201 199 208 206 210 209 212 212 216 222 227 225 220 220 219 206 204 211 216 212 214 213 218 224 182 180 234 193 204 196 195 192 194 205 212
211 221 239 234 206 190 196 197 197 200 204 204 210 211 212 205 219 221 223 224 226 221 216 215 218 218 210 215 217 222 223 216 206 208 220 237 191 171 184 186 187 189 205 222 231
212 215 217 222 226 213 204 206 210 186 193 196 204 207 213 219 229 234 229 226 224 218 212 214 213 206 217 219 216 215 214 218 218 229 219 199 188 175 179 180 189 211 236 268 288
212 211 216 212 228 229 225 220 211 225 235 239 233 214 206 201 209 213 221 222 224 220 214 210 214 215 218 227 220 215 218 220 218 223 228 226 210 189 190 198 210 233 267 284 293
205 210 210 218 217 222 224 230 231 231 225 233 238 243 240 233 234 230 204 213 213 212 208 207 213 217 226 235 229 226 227 221 222 227 220 230 223 216 211 214 236 249 270 287 292
210 208 214 221 216 217 225 227 230 226 228 226 226 233 227 223 219 218 216 201 202 198 196 207 214 221 223 226 216 219 223 228 227 226 228 224 221 204 216 237 252 268 275 276 276
214 213 215 220 218 210 221 226 225 218 226 229 234 236 238 236 226 231 231 241 220 207 203 201 202 189 196 202 197 221 221 220 222 226 228 230 234 227 238 246 255 259 266 271 274